Flag for Germany Weather past 2 weeks in Tönisvorst, North Rhine-Westphalia, Germany

Now
61 °F

Passing clouds.


Feels Like: 61 °F
Forecast: 45 / 58 °F
Wind: 9 mph from Southwest

Location: Monchengladbach Airport

Current Time: Oct 20, 2014 at 12:37:26 PM

Latest Report: Oct 20, 2014 at 12:20 PM


Visibility: N/A

Pressure: 30.04 "Hg

Humidity: 77%

Dew point: 54 °F

Location of TönisvorstLocation

Historic Weather in Tönisvorst — Graph

°F

Tönisvorst temperature yesterday

Maximum temperature yesterday: 75 °F (at 1:20 PM)
Minimum temperature yesterday: 54 °F (at 8:20 AM)
Average temperature yesterday: 68 °F

Past Weeks' High & Low Weather Summary

 TemperatureHumidityPressure
High75 °F (Oct 19, 1:20 PM)100% (Oct 7, 7:50 AM)30.09 "Hg (Oct 7, 7:50 AM)
Low45 °F (Oct 11, 7:50 AM)56% (Oct 10, 2:20 PM)29.50 "Hg (Oct 7, 9:50 AM)
Average60 °F81%29.82 "Hg
* Reported Oct 5 11:20 AM — Oct 20 11:20 AM, Tönisvorst, Weather by CustomWeather, © 2014

Note: Actual official high and low records may vary slightly from our data, if they occured in-between our weather recording intervals... More about our weather records

Advertising

Tönisvorst weather history for previous 24 hours

 ConditionsComfort  
Time TempWeatherWind HumidityBarometerVisibility
11:20 AM
Oct 20
59 °FPassing clouds.7 mph82%30.07 "HgN/A
10:50 AM59 °FPartly cloudy.9 mph82%30.04 "HgN/A
10:20 AM59 °FBroken clouds.8 mph82%30.04 "HgN/A
9:50 AM57 °FPartly sunny.9 mph88%30.04 "HgN/A
9:20 AM57 °FPartly sunny.8 mph88%30.04 "HgN/A
8:50 AM57 °FPartly sunny.8 mph88%30.04 "HgN/A
8:20 AM57 °FPartly sunny.8 mph88%30.04 "Hg5 mi
7:50 AM57 °FPartly sunny.8 mph88%30.04 "Hg5 mi
7:50 PM
Oct 19
68 °FPassing clouds.6 mph78%29.98 "HgN/A
7:20 PM68 °FPassing clouds.7 mph78%29.95 "HgN/A
6:50 PM68 °FPassing clouds.8 mph78%29.95 "HgN/A
6:20 PM68 °FPassing clouds.7 mph78%29.95 "HgN/A
5:50 PM70 °FPassing clouds.8 mph73%29.95 "HgN/A
5:20 PM72 °FPassing clouds.9 mph69%29.95 "HgN/A
4:50 PM72 °FPassing clouds.12 mph69%29.95 "HgN/A
4:20 PM72 °FPassing clouds.12 mph65%29.98 "HgN/A
3:50 PM73 °FPassing clouds.12 mph65%29.95 "HgN/A
3:20 PM73 °FPassing clouds.12 mph65%29.95 "HgN/A
2:50 PM73 °FPassing clouds.10 mph65%29.98 "HgN/A
2:20 PM73 °FPassing clouds.10 mph65%29.98 "HgN/A
1:50 PM75 °FPassing clouds.12 mph57%29.98 "HgN/A
1:20 PM75 °FPassing clouds.7 mph61%29.98 "HgN/A
12:50 PM72 °FPassing clouds.6 mph73%29.98 "HgN/A
12:20 PM70 °FPassing clouds.7 mph73%30.01 "HgN/A
Weather by CustomWeather, © 2014

See weather overviewHow to use our weather pages